Park Rapids, MN

7:11 AM CDT on July 28, 2017 (GMT -0500)
Park Rapids Municipal

Weather History for KPKD - February, 2014

Change the Weather History Date:

Tuesday, February 11, 2014

  Actual Average Record
Temperature  
Mean Temperature -6 °F -  
Max Temperature 14 °F 21 °F 53 °F (1990)
Min Temperature -23 °F -2 °F -38 °F (1988)
Degree Days  
Heating Degree Days 70    
Moisture  
Dew Point 0 °F    
Average Humidity 81    
Maximum Humidity 88    
Minimum Humidity 69    
Precipitation  
Precipitation 0.01 in - - ()
Sea Level Pressure  
Sea Level Pressure 30.06 in    
Wind  
Wind Speed 10 mph (South)    
Max Wind Speed 24 mph    
Max Gust Speed 31 mph    
Visibility 6 miles    
Events Fog , Snow    
Averages and records for this station are not official NWS values.
T = Trace of Precipitation, MM = Missing Value Source: NWS Daily Summary

Daily Weather History Graph

Daily Weather History Graph

Search for Another Location

Airport or City:

Trip Planner

Search our weather history database for the weather conditions in past years. The results will help you decide how hot, cold, wet, or windy it might be!

Date:

Astronomy

Feb. 11, 2014 Rise Set
Actual Time 7:30 AM CST 5:38 PM CST
Civil Twilight 6:59 AM CST 6:10 PM CST
Nautical Twilight 6:23 AM CST 6:46 PM CST
Astronomical Twilight 5:48 AM CST 7:21 PM CST
Moon 2:55 PM CST (2/11) 5:13 AM CST (2/11)
Length of Visible Light 11h 11m
Length of Day
10h 08m
Waxing Gibbous, 91% of the Moon is Illuminated
Feb 11
Waxing Gibbous
Feb 14
Full
Feb 22
Last Quarter
Mar 1
New
Mar 8
First Quarter

Hourly Weather History & Observations

Time (CST) Temp. Windchill Dew Point Humidity Pressure Visibility Wind Dir Wind Speed Gust Speed Precip Events Conditions
12:53 AM -23.1 °F - -27.9 °F 78% 30.47 in 10.0 mi Calm Calm - N/A   Clear
1:53 AM -20.9 °F - -25.1 °F 81% 30.46 in 10.0 mi Calm Calm - N/A   Clear
2:53 AM -20.0 °F -33.3 °F -24.0 °F 82% 30.43 in 10.0 mi SE 4.6 mph - N/A   Clear
3:53 AM -23.1 °F - -26.0 °F 86% 30.42 in 10.0 mi Calm Calm - N/A   Clear
4:53 AM -18.9 °F -35.8 °F -22.0 °F 86% 30.39 in 10.0 mi SE 6.9 mph - N/A   Clear
5:53 AM -18.0 °F -36.1 °F -22.0 °F 82% 30.38 in 10.0 mi SE 8.1 mph - N/A   Clear
6:53 AM -18.9 °F -38.6 °F -23.1 °F 81% 30.34 in 10.0 mi SE 9.2 mph - N/A   Clear
7:53 AM -15.0 °F -35.9 °F -18.9 °F 82% 30.30 in 9.0 mi SSE 11.5 mph - N/A   Clear
8:53 AM -9.9 °F -32.1 °F -14.1 °F 82% 30.27 in 10.0 mi South 15.0 mph - N/A   Clear
9:53 AM -4.0 °F -23.7 °F -9.9 °F 76% 30.24 in 10.0 mi South 13.8 mph - N/A   Clear
10:53 AM 1.0 °F -18.0 °F -6.0 °F 72% 30.20 in 10.0 mi SSE 15.0 mph - N/A   Overcast
11:01 AM 1.9 °F -16.2 °F -5.1 °F 72% 30.06 in 10.0 mi SSE 13.8 mph - N/A   Overcast
11:53 AM 6.1 °F -12.2 °F -2.0 °F 69% 30.18 in 6.0 mi South 16.1 mph - 0.00 in Snow Light Snow
12:24 PM 7.0 °F -12.1 °F -0.0 °F 73% 30.00 in 2.5 mi SSE 18.4 mph 27.6 mph 0.00 in Snow Light Snow
12:36 PM 8.1 °F -10.7 °F 1.0 °F 73% 29.99 in 4.0 mi South 18.4 mph - 0.00 in Snow Light Snow
12:53 PM 9.0 °F -9.5 °F 1.9 °F 73% 30.12 in 7.0 mi South 18.4 mph 28.8 mph 0.00 in   Overcast
1:21 PM 10.9 °F -7.5 °F 3.0 °F 70% 29.95 in 10.0 mi South 19.6 mph 25.3 mph N/A   Scattered Clouds
1:53 PM 12.0 °F -7.7 °F 5.0 °F 73% 30.05 in 7.0 mi South 24.2 mph 31.1 mph N/A   Mostly Cloudy
2:53 PM 10.9 °F -7.5 °F 5.0 °F 77% 30.01 in 5.0 mi South 19.6 mph 26.5 mph 0.00 in   Haze
3:53 PM 12.0 °F -5.6 °F 6.1 °F 77% 30.00 in 8.0 mi South 18.4 mph 27.6 mph 0.00 in   Overcast
4:42 PM 12.0 °F -3.4 °F 7.0 °F 80% 29.86 in 1.8 mi South 13.8 mph 28.8 mph 0.00 in Snow Light Snow
4:53 PM 12.0 °F -4.5 °F 7.0 °F 80% 29.99 in 1.5 mi South 16.1 mph - 0.00 in Snow Light Snow
5:04 PM 12.0 °F -6.0 °F 7.0 °F 80% 29.86 in 2.5 mi South 19.6 mph 25.3 mph 0.00 in   Haze
5:13 PM 12.0 °F -4.0 °F 7.0 °F 80% 29.87 in 3.0 mi South 15.0 mph 25.3 mph 0.00 in   Haze
5:25 PM 12.0 °F -4.5 °F 7.0 °F 80% 29.86 in 1.5 mi South 16.1 mph - 0.00 in Snow Light Snow
5:36 PM 12.0 °F -4.0 °F 8.1 °F 84% 29.86 in 0.8 mi South 15.0 mph - 0.00 in Snow Light Snow
5:44 PM 12.0 °F -4.0 °F 8.1 °F 84% 29.86 in 1.2 mi South 15.0 mph - 0.00 in Snow Light Snow
5:53 PM 12.0 °F -2.7 °F 9.0 °F 88% 29.99 in 0.8 mi South 12.7 mph - 0.00 in Snow Light Snow
6:11 PM 12.0 °F -4.0 °F 9.0 °F 88% 29.86 in 0.5 mi South 15.0 mph - 0.01 in Fog , Snow Snow
6:25 PM 12.9 °F -3.4 °F 10.0 °F 88% 29.86 in 0.8 mi South 16.1 mph - 0.01 in Snow Light Snow
6:32 PM 12.9 °F -1.6 °F 10.0 °F 88% 29.86 in 1.2 mi South 12.7 mph - 0.01 in Snow Light Snow
6:37 PM 12.9 °F -2.2 °F 10.0 °F 88% 29.86 in 2.0 mi South 13.8 mph - 0.01 in Snow Light Snow
6:46 PM 12.9 °F -2.2 °F 10.0 °F 88% 29.86 in 4.0 mi South 13.8 mph - 0.01 in   Overcast
6:53 PM 12.9 °F -1.6 °F 10.0 °F 88% 29.99 in 5.0 mi South 12.7 mph - 0.01 in   Overcast
7:10 PM 12.9 °F -1.6 °F 10.0 °F 88% 29.87 in 7.0 mi South 12.7 mph - N/A   Overcast
7:53 PM 12.9 °F -0.9 °F 9.0 °F 84% 29.99 in 9.0 mi South 11.5 mph - N/A   Overcast
8:53 PM 12.9 °F 0.7 °F 9.0 °F 84% 29.99 in 8.0 mi South 9.2 mph - N/A   Overcast
9:33 PM 12.9 °F 3.8 °F 10.0 °F 88% 29.88 in 10.0 mi South 5.8 mph - N/A   Overcast
9:53 PM 12.9 °F 2.6 °F 10.0 °F 88% 30.00 in 10.0 mi South 6.9 mph - N/A   Overcast
10:53 PM 12.9 °F 5.2 °F 10.0 °F 88% 29.99 in 10.0 mi South 4.6 mph - N/A   Overcast
11:53 PM 14.0 °F 8.2 °F 10.9 °F 88% 30.01 in 8.0 mi SSW 3.5 mph - N/A   Overcast